RH
57 73 65 61 54 42 39 37 37 36 33 31 34 35 35 37 32 32 31 31 33 33 28 28 28 27 25 24 26 26 27 23 24 23 25 25 25 26 26 24 23 21 18 16 15
42 49 45 43 41 36 34 32 31 28 27 27 28 26 26 30 33 32 30 27 29 31 29 27 23 21 19 19 19 19 21 27 29 28 26 24 23 21 19 17 14 12 11 11 11
42 38 34 32 33 32 30 30 30 29 27 27 25 22 20 21 21 23 22 21 22 24 24 25 24 23 22 21 17 16 15 15 16 18 20 19 18 16 15 12 11 11 12 11 10
28 28 29 31 30 27 24 22 20 19 21 21 21 19 19 17 19 20 21 21 22 23 24 26 26 22 20 20 17 16 14 13 12 12 12 12 13 12 14 19 19 16 15 14 13
32 29 29 30 27 21 16 15 15 17 17 17 16 15 15 16 16 17 18 20 19 20 19 22 26 23 22 20 14 11 12 12 11 11 12 16 17 18 18 18 17 16 17 17 20
21 22 21 20 18 16 17 19 18 17 15 15 16 12 11 11 12 13 14 16 17 17 17 18 18 18 20 18 13 11 10 11 12 14 16 20 18 17 15 15 17 21 28 30 30
20 19 17 17 17 22 22 19 16 16 16 16 15 16 14 12 11 11 12 13 14 16 15 17 16 18 18 16 12 14 13 13 14 17 20 20 18 15 16 21 28 40 48 46 47
21 25 24 23 23 24 20 20 18 18 18 16 15 18 17 17 15 12 11 11 12 13 13 13 14 14 12 12 14 18 18 17 19 21 23 20 20 17 19 27 45 48 46 43 39
21 27 25 24 29 38 32 21 25 31 30 24 16 10 9 11 15 17 14 12 12 13 13 13 12 13 12 14 17 21 22 21 21 23 23 18 18 18 30 46 45 44 46 46 46
24 25 25 26 55 51 33 39 43 36 15 10 9 8 8 8 8 10 13 16 13 12 14 13 13 14 14 15 17 21 22 22 25 21 20 17 18 40 50 41 40 42 41 42 55
41 32 36 50 66 57 39 52 45 24 11 10 9 9 8 8 8 8 10 14 14 14 12 13 15 17 15 16 17 21 23 24 24 23 18 16 48 51 44 42 42 42 45 54 59
54 52 47 53 74 56 47 54 44 24 16 12 11 10 9 8 9 9 9 14 14 13 13 14 15 16 17 19 19 20 23 25 25 18 17 33 50 51 45 43 43 45 55 59 60
63 68 54 77 71 63 49 54 48 36 18 16 13 11 11 10 10 10 10 14 16 16 16 15 17 17 19 19 22 22 26 27 20 21 44 40 52 54 49 47 48 52 52 66 48
75 83 60 76 70 66 45 50 50 44 31 18 18 18 14 13 11 11 11 14 18 18 18 19 17 20 20 19 25 28 27 22 21 43 53 48 45 55 47 44 46 49 59 46 32
65 69 74 64 73 72 45 50 49 47 40 21 19 17 16 15 15 13 12 14 17 21 19 19 18 19 21 28 30 29 22 21 43 47 47 45 43 46 41 43 49 52 43 35 23
61 58 68 78 71 75 56 53 49 49 49 31 19 19 18 17 14 17 16 16 19 22 22 20 25 28 29 28 24 19 23 46 46 47 49 53 56 57 44 44 38 42 33 26 20
67 55 63 76 70 70 64 45 53 48 49 52 26 17 19 21 20 19 20 22 23 22 23 28 31 31 29 23 19 34 49 48 52 59 58 65 60 47 40 32 44 33 28 25 17
72 60 54 68 73 67 68 56 54 53 47 49 52 37 18 19 20 22 24 25 27 27 28 25 23 20 18 23 44 45 49 53 51 52 57 63 50 40 40 44 39 34 27 22 17
60 49 55 56 67 69 69 76 47 56 57 48 49 48 56 40 20 20 20 19 18 18 20 22 40 50 53 49 52 64 64 64 64 56 55 59 45 54 39 50 42 39 29 18 15
68 58 51 50 56 68 68 70 87 48 56 61 54 54 47 45 49 51 50 55 48 44 47 48 52 52 47 51 64 66 58 59 54 44 44 45 44 51 48 41 45 30 25 17 14
72 70 54 50 45 68 66 64 74 90 53 43 59 63 60 54 45 42 41 39 37 36 36 36 40 41 44 52 64 55 54 59 54 52 40 32 54 38 48 35 27 23 19 14 13
81 70 74 46 40 44 73 77 69 75 83 81 50 38 35 38 45 42 40 39 37 35 36 36 42 50 53 59 57 56 62 69 56 53 39 30 43 45 43 30 20 19 14 13 10
72 57 56 70 43 36 50 64 75 73 77 78 77 77 64 52 44 49 38 38 37 36 41 52 64 63 71 75 67 67 57 53 44 34 32 28 35 35 35 25 23 16 13 12 9
89 71 74 64 63 52 39 54 58 70 72 90 86 71 73 76 78 76 77 76 71 66 67 69 65 55 57 53 38 41 44 37 28 28 30 40 39 44 37 25 21 15 11 10 8
98 98 99 94 90 72 47 50 54 52 68 89 81 82 76 75 73 79 78 65 64 67 54 51 52 49 46 43 36 41 48 46 36 33 33 47 40 30 26 19 18 11 10 10 8
100 100 97 100 78 86 72 52 47 43 52 60 85 86 77 74 73 75 81 82 82 76 71 60 50 49 53 44 44 49 49 40 34 36 40 37 34 25 20 19 14 9 10 10 8
96 100 96 100 90 84 90 66 54 51 49 54 63 74 82 79 80 72 69 68 70 74 69 56 48 43 44 34 33 36 39 36 37 40 41 33 26 22 17 14 9 9 9 8 8
Wind_Speed
19 20 23 26 28 29 30 31 32 33 33 34 35 35 37 37 36 36 36 37 37 38 37 37 38 38 39 39 40 40 41 41 43 45 47 48 48 47 50 53 52 55 56 58 62
29 30 31 32 34 34 36 37 37 37 38 38 39 40 41 42 42 42 42 42 42 43 43 42 42 40 39 40 41 42 43 46 47 48 51 51 52 53 54 54 57 60 61 62 63
33 35 36 37 38 40 41 42 44 46 45 46 46 46 45 45 45 45 44 44 44 44 46 46 45 45 46 45 45 45 47 46 47 50 53 55 55 57 58 58 59 59 60 62 64
37 38 40 41 42 43 44 46 47 48 49 51 53 53 52 51 51 50 50 48 47 46 47 48 48 48 47 47 48 51 50 49 48 49 51 54 54 54 52 53 56 57 60 63 65
40 41 43 45 46 49 51 51 51 50 51 52 56 58 57 56 56 55 55 54 52 52 51 51 52 53 51 50 50 49 49 50 50 49 48 49 51 50 51 55 59 60 64 66 63
44 46 48 49 50 52 52 51 53 53 54 57 59 61 59 59 59 59 58 57 56 56 54 53 54 54 52 51 51 51 50 49 46 45 45 47 51 53 54 58 60 58 57 56 58
46 48 49 50 49 48 53 56 57 58 59 58 54 54 58 61 62 61 61 59 58 57 54 52 51 50 50 50 50 50 50 47 46 44 45 49 54 52 55 53 50 51 55 60 65
42 43 44 45 47 54 60 61 57 53 51 50 49 49 49 51 55 60 61 60 59 58 57 55 54 52 51 49 48 48 48 47 46 45 49 50 59 58 55 49 50 54 61 66 72
42 42 44 46 50 57 55 47 41 42 46 49 49 48 48 49 50 51 54 58 59 58 57 56 55 54 51 47 45 47 47 47 48 47 51 50 57 61 52 48 54 58 65 71 79
42 42 46 45 49 52 44 36 39 44 44 44 41 38 38 43 47 50 49 48 52 55 56 54 52 51 47 45 45 45 46 46 49 49 52 55 56 53 52 53 56 63 70 75 85
41 42 44 44 47 48 37 38 41 43 38 35 32 33 33 34 38 44 47 44 44 47 49 50 48 46 44 45 44 45 44 46 49 51 54 55 50 54 57 58 63 70 75 81 90
42 43 43 44 45 48 36 37 40 40 36 34 31 28 27 28 30 36 39 38 37 38 39 43 46 46 44 44 46 45 44 46 51 53 54 51 52 57 58 65 71 75 81 88 96
42 42 44 41 43 44 35 35 37 38 35 30 29 25 23 23 23 28 32 34 32 33 35 39 42 46 45 44 46 43 44 49 52 52 54 49 53 63 66 70 75 81 84 94 95
41 42 42 40 43 45 34 33 36 36 34 30 28 23 21 20 19 22 28 31 32 31 30 35 38 41 41 41 41 46 48 52 51 48 51 56 54 70 71 76 81 85 92 92 94
44 43 44 38 40 44 37 33 34 32 32 29 26 24 20 18 15 18 23 28 31 31 30 33 35 37 36 38 42 46 52 52 48 50 53 59 63 73 76 83 87 90 92 90 92
44 42 41 42 38 42 40 35 32 30 31 29 25 23 21 18 15 15 19 24 26 28 31 33 37 38 39 40 45 48 51 50 50 55 57 65 69 78 83 89 91 93 89 91 90
45 39 41 42 40 39 40 35 34 31 29 28 27 24 22 21 19 17 18 22 25 30 32 33 38 42 46 47 48 48 49 51 53 56 62 69 74 81 91 91 96 92 91 92 91
50 47 45 44 41 38 37 36 34 33 30 28 28 27 26 24 24 23 24 25 27 30 33 38 42 46 47 46 46 50 52 56 57 61 67 76 81 86 96 95 95 94 92 92 90
55 53 49 48 40 37 38 37 35 35 34 30 29 28 27 27 27 29 30 32 33 34 36 39 44 44 44 46 49 53 57 62 65 70 74 78 82 92 97 101 98 99 94 90 87
60 59 51 52 47 42 39 38 34 36 36 36 33 31 32 31 30 30 29 33 33 33 34 37 44 49 48 51 54 57 63 69 73 77 79 82 86 100 100 105 100 95 91 88 85
63 62 59 52 50 47 42 40 37 34 35 37 38 38 38 37 37 39 37 37 39 40 42 41 48 52 53 54 59 62 70 78 80 84 87 88 91 97 104 100 93 90 87 84 79
70 69 66 61 56 52 48 45 42 39 37 35 36 39 39 39 42 44 44 43 43 44 46 46 48 54 60 60 62 69 78 84 84 89 94 94 93 101 101 98 92 87 83 82 78
70 71 71 70 63 58 55 52 51 46 43 43 40 38 39 40 42 45 46 47 48 47 49 52 54 55 63 69 70 76 82 89 89 91 96 100 100 102 98 93 92 87 83 79 75
67 68 69 71 67 66 60 58 56 55 51 50 50 45 44 45 46 47 48 49 51 51 52 55 61 63 70 76 76 82 90 93 94 96 93 107 101 100 94 90 87 85 81 77 70
68 69 72 71 71 70 68 66 62 57 56 60 58 54 53 52 53 55 57 58 59 62 63 64 68 70 75 80 80 84 94 98 99 102 104 94 95 93 92 87 86 83 78 74 68
70 74 76 74 75 73 70 72 70 65 64 63 63 62 63 60 60 63 65 65 70 72 75 77 77 79 81 84 85 90 99 101 100 103 98 95 90 90 88 85 84 81 75 71 64
81 80 77 74 77 78 80 79 74 72 69 70 69 69 67 67 67 70 71 73 74 79 82 84 85 87 86 90 93 94 102 101 98 95 94 91 88 86 85 82 81 77 72 67 60
Wind_Direction
264 265 264 264 267 270 272 274 273 270 271 269 265 262 261 259 260 261 262 261 262 264 265 265 267 267 269 271 270 269 269 268 266 265 264 262 262 259 260 264 266 266 266 266 269
265 269 269 269 270 272 274 274 274 273 272 270 265 264 262 260 260 260 263 264 262 262 264 264 264 265 266 268 267 267 268 267 266 266 267 267 268 267 264 264 267 266 263 261 262
269 273 277 278 279 279 280 279 278 277 274 272 271 269 267 265 264 262 263 264 264 265 263 262 262 264 265 266 266 268 269 268 267 267 268 270 269 270 270 271 268 268 267 265 264
278 279 280 281 281 281 282 281 278 276 274 272 271 268 265 264 262 262 263 265 265 266 265 263 262 265 268 267 270 271 270 269 270 269 272 274 272 270 269 271 271 270 271 273 273
281 282 282 281 282 283 283 280 277 275 274 274 274 270 266 264 263 262 262 263 264 264 265 264 262 264 267 267 272 273 271 272 273 272 274 274 272 273 273 274 275 276 274 273 272
284 284 284 284 285 287 286 283 281 280 280 277 273 269 265 262 261 260 260 260 261 262 264 264 264 266 267 270 274 276 274 274 272 274 275 275 276 277 279 281 280 279 276 273 270
285 286 286 285 287 289 288 287 285 284 282 279 274 267 263 260 258 256 257 258 258 260 261 263 263 266 267 271 276 278 275 272 272 275 275 274 280 281 285 282 281 280 281 282 282
287 287 288 288 291 295 293 292 291 286 284 281 278 275 269 263 261 257 255 254 256 258 260 262 264 266 268 273 275 277 274 271 272 273 278 277 286 286 287 281 279 282 283 285 288
289 289 291 292 299 301 301 299 294 292 290 288 284 279 271 264 259 256 254 253 253 255 257 260 262 264 269 270 272 274 274 272 272 273 280 281 285 287 286 282 285 290 293 294 293
291 291 294 301 305 306 304 298 300 300 299 295 290 281 272 266 259 254 253 252 252 253 254 256 260 263 265 265 270 273 273 271 275 280 284 287 290 284 285 290 293 294 295 294 296
296 294 295 301 308 310 302 301 307 309 304 302 294 286 280 269 263 254 249 250 252 253 254 255 257 261 263 264 268 270 269 274 279 284 287 292 287 290 293 296 295 295 297 299 300
294 295 299 303 304 307 300 302 312 315 316 312 305 299 292 279 269 256 247 247 254 256 255 255 256 259 261 265 270 270 272 276 284 289 290 287 291 292 295 297 298 300 301 304 299
288 291 297 299 302 307 297 301 312 318 319 319 317 312 305 293 274 255 242 243 250 254 257 259 259 259 262 264 272 274 277 283 288 293 291 290 295 294 297 298 299 302 305 305 301
283 285 292 294 299 303 294 299 309 319 323 319 323 321 314 303 290 260 243 243 247 254 259 266 265 261 262 268 274 279 281 286 289 287 291 296 295 296 299 301 304 308 306 304 299
281 282 285 290 295 299 296 292 303 317 323 318 318 319 319 313 300 274 251 248 250 256 264 271 270 268 269 272 275 281 285 287 289 293 295 296 298 299 305 305 307 307 308 305 302
279 286 286 288 291 295 300 288 296 309 319 320 312 311 315 313 302 282 268 262 262 262 270 272 273 272 273 277 282 284 286 288 293 295 297 301 307 303 304 305 309 309 309 305 304
275 282 286 285 289 295 296 284 288 297 307 317 313 301 301 302 297 288 273 267 268 272 273 273 275 279 282 285 286 286 288 291 295 299 302 301 303 306 307 313 312 313 309 308 309
273 280 285 286 286 291 289 289 280 286 296 305 313 312 299 294 292 288 284 280 279 280 282 282 281 283 286 289 291 291 294 295 298 300 304 305 308 311 309 316 316 314 313 311 312
270 275 280 284 282 286 285 292 283 277 284 291 300 306 310 306 294 289 287 285 283 283 283 286 287 288 291 292 293 296 297 297 298 302 304 306 312 309 314 314 318 314 314 313 314
270 272 275 279 282 281 280 284 290 283 279 283 287 293 297 298 298 297 296 295 295 292 291 291 290 290 294 297 295 296 296 296 300 305 307 310 315 309 315 317 315 314 315 316 318
267 270 273 274 277 280 277 277 281 284 281 278 280 284 286 289 290 290 289 290 292 295 294 292 291 292 296 295 295 299 299 298 304 307 310 313 313 313 315 317 313 315 317 318 317
265 268 273 273 273 275 276 276 275 276 281 281 279 279 281 284 285 286 287 288 289 291 291 292 291 294 296 296 299 300 300 301 306 307 309 316 314 316 318 315 314 316 318 319 318
262 265 268 271 272 274 273 277 278 274 276 280 280 281 282 282 281 284 285 287 287 289 291 293 294 297 297 298 300 300 299 301 305 309 313 315 318 316 317 317 316 317 319 318 318
258 263 265 268 272 273 273 272 274 276 277 277 278 278 282 285 285 285 287 288 290 291 291 293 295 297 297 297 300 302 303 306 310 312 315 315 318 315 315 315 316 317 319 318 319
258 262 263 266 268 271 271 271 270 272 275 278 278 279 279 281 284 286 287 288 289 290 291 292 294 297 298 300 305 305 304 306 310 313 317 318 317 315 313 315 316 317 319 320 319
254 259 259 264 268 270 270 270 272 273 273 276 277 280 280 281 282 284 286 289 290 291 293 295 296 299 301 302 305 305 304 308 313 315 316 316 315 313 313 316 315 318 318 320 318
249 254 259 262 266 269 269 272 271 273 272 274 274 275 277 280 282 284 286 287 288 290 292 294 296 298 301 304 305 305 306 311 315 315 315 315 313 313 314 315 314 318 319 319 316